[[{"header":{"parameterUnit":"m.s-1","parameterCategory":1,"la1":30.2992,"la2":30.254,"lo1":-89.0895,"lo2":-89.0443,"dy":0.0025,"dx":0.0025,"nx":19,"ny":19,"refTime":"2026-03-12T03:00:00:Z","depth":0,"parameterNumber":2,"parameterNumberName":"U-component_of_WINDS"},"data":[0,0,0,-3.5405,-3.5409,-3.5588,-3.5589,-3.5858,-3.5861,0,0,0,0,0,0,0,0,0,0,0,-3.5377,-3.5379,-3.5405,-3.541,-3.5588,-3.5589,-3.5858,-3.5861,0,0,0,0,0,0,0,0,0,0,0,-3.5376,-3.5379,-3.5382,-3.5411,-3.5588,-3.5589,-3.5857,-3.5708,0,0,0,0,0,0,0,0,0,0,-3.5528,-3.5525,-3.5378,-3.5382,-3.5412,-3.5588,-3.5589,-3.57,-3.5717,-3.5795,0,-3.587,0,-3.587,-3.5882,-3.5883,0,0,0,-3.5392,-3.5511,-3.5537,-3.5383,-3.5414,-3.5588,-3.5503,-3.5709,-3.5729,-3.5818,-3.5873,-3.5882,-3.5874,-3.5884,-3.5885,-3.6389,-3.6392,0,0,-3.5382,-3.5423,-3.5524,-3.5551,-3.5525,-3.5497,-3.5508,-3.572,-3.5784,-3.5874,-3.5888,-3.5879,-3.5886,-3.5888,-3.6386,-3.639,0,0,0,-3.5366,-3.5417,-3.5436,-3.5541,-3.557,-3.5503,-3.5516,-3.5774,-3.5777,-3.589,-3.5882,-3.5888,-3.5891,-3.6382,-3.6387,-3.6584,0,0,0,-3.5359,-3.5407,-3.5433,-3.5459,-3.5567,-3.5674,-3.5566,-3.5763,-3.5785,-3.5881,-3.5888,-3.5894,-3.6379,-3.6385,-3.6571,-3.6671,0,0,0,-3.5357,-3.5406,-3.544,-3.5461,-3.5539,-3.567,-3.5684,-3.5766,-3.5781,-3.5883,-3.5895,-3.6376,-3.6384,-3.6559,-3.6652,-3.6815,0,0,0,-3.5367,-3.5614,-3.5444,-3.5717,-3.5538,-3.5789,-3.5682,-3.5868,-3.5979,-3.5889,-3.6379,-3.6387,-3.6555,-3.664,-3.6803,-3.6961,-3.703,0,0,-3.5701,-3.5656,-3.5813,-3.5666,-3.5958,-3.5759,-3.6079,-3.6144,-3.6117,-3.63,-3.6312,-3.6575,-3.665,-3.6813,-3.7401,-3.7457,0,0,0,-3.5933,-3.6046,-3.6115,-3.6221,-3.6274,-3.6328,-3.6338,-3.6361,-3.6514,-3.6219,-3.6676,-3.672,-3.6813,-3.6887,-3.6934,-3.7012,-3.6422,-3.6421,-3.6421,-3.6467,-3.6417,-3.6673,-3.6645,-3.675,-3.6756,-3.6836,-3.6868,-3.679,-3.6899,-3.6954,-3.7316,-3.7404,-3.7439,-3.7521,-3.7031,-3.7032,-3.7033,-3.7033,-3.6953,-3.7107,-3.6993,-3.7201,-3.7147,-3.7322,-3.7337,-3.7275,-3.743,-3.7272,-3.7352,-3.7185,-3.7501,-3.757,-3.7048,-3.7045,-3.7043,-3.7042,-3.7041,-3.7299,-3.7364,-3.7386,-3.7532,-3.7651,-3.7613,-3.7767,-3.7712,-3.7662,-3.7741,-3.7793,-3.7789,-3.778,-3.7769,-3.777,-3.7771,-3.7772,-3.7773,-3.7774,-3.765,-3.7668,-3.7803,-3.7878,-3.7938,-3.801,-3.8016,-3.8074,-3.8124,-3.8072,-3.8073,-3.7984,-3.7541,-3.7431,-3.7794,-3.779,-3.7788,-3.7786,-3.7784,-3.8164,-3.8038,-3.8248,-3.8308,-3.839,-3.8511,-3.8438,-3.856,-3.8599,-3.8677,-3.8569,-3.825,-3.82,-3.8163,-3.8072,-3.8578,-3.8578,-3.8578,-3.8578,-3.8457,-3.8425,-3.8625,-3.8724,-3.8815,-3.8769,-3.9007,-3.9014,-3.9002,-3.9023,-3.8941,-3.8815,-3.8779,-3.8751,-3.8701,-3.8615,-3.9249,-3.9249,-3.925,-3.8771,-3.8745,-3.8958,-3.8942,-3.9002,-3.9054,-3.9277,-3.9395,-3.9355,-3.9276,-3.9039,-3.9011,-3.8807,-3.8743,-3.8661,-3.8584,-3.8426,0,0]},{"header":{"parameterUnit":"m.s-1","parameterCategory":1,"la1":30.2992,"la2":30.254,"lo1":-89.0895,"lo2":-89.0443,"dy":0.0025,"dx":0.0025,"nx":19,"ny":19,"refTime":"2026-03-12T03:00:00:Z","depth":0,"parameterNumber":3,"parameterNumberName":"V-component_of_WINDS"},"data":[0,0,0,-2.7651,-2.7653,-2.775,-2.775,-2.7864,-2.7865,0,0,0,0,0,0,0,0,0,0,0,-2.762,-2.762,-2.7651,-2.7653,-2.775,-2.775,-2.7864,-2.7865,0,0,0,0,0,0,0,0,0,0,0,-2.7619,-2.762,-2.7621,-2.7654,-2.775,-2.775,-2.7863,-2.7793,0,0,0,0,0,0,0,0,0,0,-2.7701,-2.767,-2.762,-2.7621,-2.7654,-2.7749,-2.775,-2.779,-2.7798,-2.7817,0,-2.7836,0,-2.7852,-2.7872,-2.7872,0,0,0,-2.7655,-2.7664,-2.7693,-2.7621,-2.7655,-2.7749,-2.7707,-2.7795,-2.7803,-2.7827,-2.7837,-2.7842,-2.7854,-2.7873,-2.7873,-2.7981,-2.7982,0,0,-2.765,-2.7635,-2.7687,-2.7698,-2.7686,-2.7704,-2.771,-2.78,-2.7809,-2.7838,-2.7844,-2.7856,-2.7873,-2.7874,-2.7981,-2.7982,0,0,0,-2.7633,-2.7631,-2.7658,-2.7693,-2.7711,-2.7706,-2.7713,-2.7805,-2.7815,-2.7846,-2.7857,-2.7874,-2.7875,-2.7981,-2.7981,-2.7987,0,0,0,-2.763,-2.7622,-2.7656,-2.7648,-2.771,-2.776,-2.7717,-2.7809,-2.782,-2.7857,-2.7874,-2.7876,-2.798,-2.7981,-2.7986,-2.7992,0,0,0,-2.7614,-2.762,-2.7633,-2.7647,-2.7688,-2.7759,-2.7774,-2.7812,-2.7827,-2.7873,-2.7877,-2.798,-2.7981,-2.7985,-2.7991,-2.8015,0,0,0,-2.7593,-2.7638,-2.7633,-2.7688,-2.7687,-2.7763,-2.7774,-2.7831,-2.7872,-2.7875,-2.798,-2.7981,-2.7985,-2.799,-2.8014,-2.8031,-2.8038,0,0,-2.7642,-2.7644,-2.7677,-2.7675,-2.7748,-2.775,-2.7823,-2.7873,-2.7891,-2.7949,-2.7952,-2.7987,-2.7991,-2.8014,-2.8083,-2.8088,0,0,0,-2.7687,-2.7711,-2.7733,-2.7771,-2.7811,-2.7844,-2.7885,-2.7903,-2.7954,-2.7919,-2.8003,-2.8006,-2.802,-2.8029,-2.8034,-2.8046,-2.7985,-2.7985,-2.7985,-2.7735,-2.7755,-2.781,-2.784,-2.7876,-2.7916,-2.7946,-2.7977,-2.7987,-2.8006,-2.8023,-2.8062,-2.8072,-2.8076,-2.8088,-2.8035,-2.8035,-2.8035,-2.8035,-2.7807,-2.7842,-2.7852,-2.7909,-2.7927,-2.7974,-2.8013,-2.8018,-2.8062,-2.8052,-2.8065,-2.805,-2.8081,-2.8092,-2.8036,-2.8036,-2.8036,-2.8036,-2.8036,-2.7839,-2.7859,-2.7881,-2.7935,-2.7974,-2.8003,-2.8044,-2.806,-2.8075,-2.8089,-2.8107,-2.8107,-2.8107,-2.8097,-2.8097,-2.8097,-2.8097,-2.8097,-2.8097,-2.7864,-2.7888,-2.7922,-2.7966,-2.799,-2.8024,-2.8063,-2.8087,-2.8117,-2.8125,-2.8125,-2.813,-2.8081,-2.8067,-2.8099,-2.8099,-2.8099,-2.8099,-2.8098,-2.7926,-2.7914,-2.7967,-2.7991,-2.8042,-2.8078,-2.8098,-2.8144,-2.8166,-2.8185,-2.8187,-2.8149,-2.8151,-2.8148,-2.8136,-2.8185,-2.8185,-2.8185,-2.8185,-2.7952,-2.7955,-2.8011,-2.8048,-2.8087,-2.8109,-2.8164,-2.8192,-2.822,-2.8234,-2.8229,-2.8216,-2.8212,-2.8217,-2.8212,-2.8201,-2.8265,-2.8265,-2.8265,-2.799,-2.7997,-2.8042,-2.807,-2.811,-2.8143,-2.8194,-2.8234,-2.8263,-2.8268,-2.8244,-2.8241,-2.8219,-2.8212,-2.8216,-2.8208,-2.8189,0,0]}]]